Location: Norton
(51.3000°N, 0.8167°E)
Time: 13:08:51
(UTC+00:00)

SPOT 1/Viking Rocket - Pass Details

Date: 03 March 2021
Orbit: 778 x 793 km, 98.4° (Epoch: 10 April)

Event Time Altitude Azimuth Distance (km) Brightness Sun altitude
Exits shadow 20:29:55 47° 29° (NNE) 1,036 4.0 -26.6°
Drops below altitude 10° 20:33:58 10° 352° (N) 2,353 6.4 -27.2°
Sets 20:36:20 0° 349° (NNW) 3,288 7.3 -27.5°
